Location: ActonStarParty
(42.4766°N, 71.4538°W)
Time: 04:17:32
(UTC-04:00)

Amateur Radio Satellites - All Passes

Search period start: 02 May 2016 03:47
Search period end: 03 May 2016 03:47
Location: ActonStarParty, 42.4766°N, 71.4538°W

Satellite Date Start Highest point End Downlink Frequencies (MHz)
Time Altitude Azimuth
ITAMSAT 1 02 May 03:56:44 04:01:56 76° 286° (WNW) 04:07:06 435.822/435.867
Gurwin Techsat 1B 02 May 04:06:43 04:11:12 28° 295° (WNW) 04:15:41 435.225
AO-7 02 May 04:13:28 04:21:32 51° 101° (ESE) 04:29:34 29.400- 29.500
AIST 2 02 May 04:18:13 04:20:34 14° 39° (NE) 04:22:54 435.215
JAS-2 02 May 04:20:38 04:24:25 15° 308° (NW) 04:28:15 435.910
CUSAT 1 02 May 04:21:06 04:25:01 15° 278° (W) 04:29:10 437.405
MOZHAYETS 4 02 May 04:21:26 04:25:52 50° 261° (W) 04:30:19
KKS-1 02 May 04:26:08 04:29:57 27° 264° (W) 04:33:48 437.445
YUBILEINY 02 May 04:26:32 04:32:13 19° 60° (ENE) 04:37:54 435.215
BEESAT 3 02 May 04:26:32 04:29:57 28° 245° (WSW) 04:33:20 437.485
CUBESAT XI-V 02 May 04:27:46 04:31:19 23° 66° (ENE) 04:34:54 437.345
BEESAT 2 02 May 04:31:38 04:35:26 42° 243° (WSW) 04:39:11 435.950
STARS 02 May 04:45:12 04:49:09 32° 263° (W) 04:53:09 437.465
DANDE 02 May 04:54:27 04:58:06 15° 275° (W) 05:02:05 436.750
RS-15 02 May 05:07:00 05:18:16 40° 35° (NE) 05:29:38 29.354- 29.394
Cosmos 2491 02 May 05:13:32 05:18:12 16° 75° (ENE) 05:22:52 435.465 / 435.565
STRAND 1 02 May 05:26:19 05:26:51 10° 56° (NE) 05:27:23 437.568
NOAA 18 02 May 05:26:47 05:27:32 10° 88° (E) 05:28:16 137.9125
BRITE-PL 02 May 05:37:34 05:39:47 12° 86° (E) 05:41:59 437.365/2234.400
ITAMSAT 1 02 May 05:39:21 05:40:30 11° 304° (NW) 05:41:39 435.822/435.867
HORYU 2 02 May 05:43:02 05:47:28 82° 287° (WNW) 05:51:53 437.375
AIST 2 02 May 05:55:26 05:59:36 81° 238° (WSW) 06:03:44 435.215
Cubesat XI-IV 02 May 06:03:20 06:07:00 19° 92° (E) 06:10:40 437.490
NOAA 15 02 May 06:04:03 06:08:38 29° 95° (E) 06:13:11 137.62
CUBESAT XI-V 02 May 06:04:12 06:08:28 38° 262° (W) 06:12:48 437.345
AO-7 02 May 06:06:34 06:14:05 40° 301° (WNW) 06:21:37 29.400- 29.500
LilacSat-2 02 May 06:11:52 06:14:18 16° 92° (E) 06:16:43 437.200
YUBILEINY 02 May 06:21:40 06:30:26 85° 82° (E) 06:39:10 435.215
Cosmos 2504 02 May 06:33:43 06:40:04 28° 69° (ENE) 06:46:44 435.465 / 435.565
ISS 02 May 06:37:43 06:39:03 12° 130° (SE) 06:40:24 145.825
GOMX 1 02 May 06:52:02 06:56:45 29° 93° (E) 07:01:17 467.674
DOVE 4 02 May 06:53:55 06:56:35 14° 87° (E) 06:59:13 437.250
CUTE-I 02 May 06:58:00 07:03:16 59° 101° (E) 07:08:31 437.470
STRAND 1 02 May 07:00:03 07:05:07 74° 74° (ENE) 07:10:13 437.568
NOAA 18 02 May 07:03:29 07:08:59 83° 104° (ESE) 07:14:26 137.9125
Cosmos 2491 02 May 07:04:42 07:13:30 80° 95° (E) 07:22:23 435.465 / 435.565
BRITE-PL 02 May 07:13:15 07:18:59 87° 101° (ESE) 07:24:37 437.365/2234.400
RS-15 02 May 07:19:47 07:32:05 80° 241° (WSW) 07:44:21 29.354- 29.394
SO-50 02 May 07:28:29 07:33:21 69° 121° (ESE) 07:38:15 436.795
HO-68 02 May 07:33:25 07:37:43 17° 89° (E) 07:42:00 435.675
M-CUBED/EXP-1 PRIME 02 May 07:36:19 07:40:02 37° 102° (ESE) 07:43:27 437.505
Cubesat XI-IV 02 May 07:42:13 07:47:26 57° 289° (WNW) 07:52:38 437.490
NOAA 15 02 May 07:43:34 07:48:28 38° 292° (WNW) 07:53:20 137.62
CINEMA 3 02 May 07:43:51 07:45:50 13° 88° (E) 07:47:47 145.822/145.860
LilacSat-2 02 May 07:45:15 07:48:45 35° 289° (WNW) 07:52:11 437.200
PRISM 02 May 07:50:08 07:54:02 47° 72° (ENE) 07:57:59 437.425
CANX-2 02 May 07:54:17 07:57:03 17° 92° (E) 07:59:48 2200.000
AUBIESAT-1 02 May 07:55:36 07:59:27 52° 105° (ESE) 08:03:00 437.475
ISS 02 May 08:11:49 08:15:04 82° 323° (NW) 08:18:22 145.825
YUBILEINY 02 May 08:20:19 08:26:03 20° 282° (WNW) 08:31:47 435.215
CUTE 1.7 + AOD 2 02 May 08:26:25 08:30:15 33° 97° (E) 08:34:03 437.475
Cosmos 2504 02 May 08:26:27 08:33:50 59° 268° (W) 08:41:45 435.465 / 435.565
DOVE 4 02 May 08:29:41 08:34:52 69° 285° (WNW) 08:39:43 437.250
GOMX 1 02 May 08:29:49 08:34:52 39° 291° (WNW) 08:39:43 467.674
CUBEBUG 2 02 May 08:36:02 08:38:12 14° 90° (E) 08:40:21 437.445
CUTE-I 02 May 08:39:07 08:42:52 20° 298° (WNW) 08:46:35 437.470
STRAND 1 02 May 08:42:26 08:44:50 13° 271° (W) 08:47:14 437.568
NOAA 18 02 May 08:45:55 08:48:56 15° 302° (WNW) 08:51:55 137.9125
ANTELSAT 02 May 08:48:26 08:49:31 11° 60° (ENE) 08:50:37 437.575/2403.000
BRITE-PL 02 May 08:53:26 08:56:39 16° 301° (WNW) 08:59:52 437.365/2234.400
SEEDS 02 May 08:54:54 08:58:59 50° 99° (E) 09:03:04 437.485
COMPASS 1 02 May 08:59:46 09:03:43 40° 98° (E) 09:07:39 437.405
ZACube-1 02 May 09:03:02 09:04:42 12° 89° (E) 09:06:21 437.345
Cosmos 2491 02 May 09:04:41 09:11:23 24° 297° (WNW) 09:18:09 435.465 / 435.565
SO-50 02 May 09:10:37 09:14:20 21° 320° (NW) 09:18:02 436.795
M-CUBED/EXP-1 PRIME 02 May 09:11:33 09:14:17 18° 302° (WNW) 09:16:52 437.505
CINEMA 3 02 May 09:18:51 09:23:31 65° 286° (WNW) 09:27:54 145.822/145.860
HO-68 02 May 09:19:06 09:26:18 88° 286° (WNW) 09:33:28 435.675
PRISM 02 May 09:27:26 09:29:37 14° 268° (W) 09:31:50 437.425
CANX-2 02 May 09:29:07 09:33:06 42° 288° (WNW) 09:37:05 2200.000
AAUSAT CUBESAT 2 02 May 09:31:13 09:35:22 76° 102° (ESE) 09:39:31 437.432
AUBIESAT-1 02 May 09:31:29 09:33:27 14° 304° (NW) 09:35:21 437.475
RS-15 02 May 09:34:36 09:42:34 21° 262° (W) 09:50:34 29.354- 29.394
UNISAT 6 02 May 09:39:10 09:43:21 34° 70° (ENE) 09:47:29 437.425
Oscar 11 02 May 09:44:44 09:48:50 42° 98° (E) 09:52:55 145.826/435.025
ISS 02 May 09:49:20 09:51:55 21° 345° (NNW) 09:54:31 145.825
FUNcube-1 02 May 09:55:23 09:59:25 44° 99° (E) 10:03:22 145.935
TIGRISAT 02 May 09:56:36 10:01:05 48° 72° (ENE) 10:05:30 435.000
CUTE 1.7 + AOD 2 02 May 10:02:39 10:05:54 22° 293° (WNW) 10:09:09 437.475
PHONESAT 2.4 02 May 10:03:45 10:05:56 17° 153° (SSE) 10:08:08 2401.200-2431.200
UWE-3 02 May 10:04:52 10:09:09 88° 295° (WNW) 10:13:20 435.000/436.395/437.385
GONETS M04 02 May 10:10:34 10:16:40 20° 61° (ENE) 10:22:41
CUBEBUG 2 02 May 10:10:58 10:15:13 53° 287° (WNW) 10:19:19 437.445
HUMSAT D 02 May 10:11:36 10:14:22 17° 93° (E) 10:17:07 437.325/437.525
ANTELSAT 02 May 10:20:52 10:25:32 90° 271° (W) 10:30:08 437.575/2403.000
QB50P2 02 May 10:25:48 10:29:06 22° 66° (ENE) 10:32:25 145.880/145.840
DUCHIFAT 1 02 May 10:26:41 10:29:45 20° 65° (ENE) 10:32:49 145.980
AIST 1 02 May 10:26:54 10:28:49 12° 67° (ENE) 10:30:42
POLYITAN 1 02 May 10:27:55 10:31:15 22° 67° (ENE) 10:34:36 437.675
POPSAT HIP 1 02 May 10:30:38 10:34:01 23° 67° (ENE) 10:37:25 437.405
SEEDS 02 May 10:31:53 10:34:17 15° 296° (WNW) 10:36:41 437.485
QB50P1 02 May 10:33:47 10:37:17 25° 68° (ENE) 10:40:50 145.935-145.965
COMPASS 1 02 May 10:36:10 10:38:59 18° 294° (WNW) 10:41:48 437.405
ZACube-1 02 May 10:37:14 10:41:24 57° 286° (WNW) 10:45:27 437.345
Cosmos 2499 02 May 10:43:05 10:47:27 16° 62° (ENE) 10:51:57 435.465 / 435.565
DELFI C3 02 May 10:50:30 10:54:29 69° 284° (WNW) 10:58:26 145.870
JAS-2 02 May 11:05:27 11:08:03 13° 50° (NE) 11:10:43 435.910
NANOSAT C BR1 02 May 11:08:12 11:12:22 56° 73° (ENE) 11:16:35 145.865
HO-68 02 May 11:08:24 11:13:04 19° 306° (NW) 11:17:43 435.675
AAUSAT CUBESAT 2 02 May 11:09:35 11:10:15 10° 299° (WNW) 11:10:56 437.432
BUGSAT 1 02 May 11:10:42 11:14:19 28° 68° (ENE) 11:17:58 437.445
UNISAT 6 02 May 11:16:15 11:20:05 25° 265° (W) 11:23:53 437.425
Oscar 11 02 May 11:21:41 11:24:40 19° 295° (WNW) 11:27:38 145.826/435.025
AISAT 02 May 11:26:35 11:29:40 18° 92° (E) 11:32:43 437.250
ISS 02 May 11:27:01 11:29:15 17° 6° (N) 11:31:29 145.825
FUNcube-1 02 May 11:32:39 11:35:19 17° 296° (WNW) 11:37:57 145.935
TIGRISAT 02 May 11:34:53 11:38:00 18° 268° (W) 11:41:05 435.000
PHONESAT 2.4 02 May 11:39:21 11:42:24 48° 169° (S) 11:45:29 2401.200-2431.200
ESTCUBE 1 02 May 11:41:45 11:45:54 34° 97° (E) 11:50:03 437.505/2401.250
HUMSAT D 02 May 11:46:22 11:50:09 37° 289° (WNW) 11:53:54 437.325/437.525
QB50P2 02 May 12:00:48 12:04:43 34° 263° (W) 12:08:39 145.880/145.840
DUCHIFAT 1 02 May 12:01:11 12:05:10 39° 262° (W) 12:09:12 145.980
AIST 1 02 May 12:02:30 12:06:52 62° 265° (W) 12:11:12
POLYITAN 1 02 May 12:02:57 12:06:52 34° 263° (W) 12:10:48 437.675
CUBEBUG 1 02 May 12:04:19 12:08:33 42° 99° (E) 12:12:45 437.445
POPSAT HIP 1 02 May 12:05:46 12:09:38 32° 263° (W) 12:13:32 437.405
GONETS M04 02 May 12:05:58 12:14:47 90° 264° (W) 12:23:30
QB50P1 02 May 12:09:13 12:12:58 29° 264° (W) 12:16:45 145.935-145.965
Oscar 19 02 May 12:19:55 12:24:05 25° 64° (ENE) 12:28:17 437.125/150
50 SAT 02 May 12:20:49 12:24:30 83° 104° (ESE) 12:28:09 437.505
DX 1 02 May 12:28:53 12:33:18 70° 103° (ESE) 12:37:38 434.975-435.025
VELOX 1 02 May 12:29:51 12:34:22 81° 104° (ESE) 12:38:49 145.980
Cosmos 2499 02 May 12:34:00 12:41:44 79° 82° (E) 12:50:04 435.465 / 435.565
UKube-1 02 May 12:36:29 12:40:50 69° 103° (ESE) 12:45:08 .
JAS-2 02 May 12:45:44 12:51:36 68° 72° (ENE) 12:58:21 435.910
BUGSAT 1 02 May 12:46:06 12:49:39 26° 265° (W) 12:53:14 437.445
NANOSAT C BR1 02 May 12:46:26 12:48:28 13° 270° (W) 12:50:30 145.865
AO-85 02 May 12:49:17 12:54:38 60° 119° (ESE) 12:59:58 145.980
AISAT 02 May 13:02:05 13:06:22 44° 289° (WNW) 13:10:35 437.250
ISS 02 May 13:03:19 13:06:23 36° 25° (NNE) 13:09:27 145.825
SPROUT 02 May 13:07:29 13:11:49 81° 103° (ESE) 13:16:05 437.525
PHONESAT 2.4 02 May 13:16:01 13:19:08 56° 186° (S) 13:22:14 2401.200-2431.200
ESTCUBE 1 02 May 13:18:54 13:22:32 24° 294° (WNW) 13:26:10 437.505/2401.250
AO-7 02 May 13:24:44 13:29:44 18° 47° (NE) 13:34:43 29.400- 29.500
ITAMSAT 1 02 May 13:37:24 13:41:26 24° 64° (ENE) 13:45:29 435.822/435.867
CUBEBUG 1 02 May 13:41:21 13:44:32 20° 295° (WNW) 13:47:43 437.445
TISAT 1 02 May 13:43:37 13:47:48 58° 100° (E) 13:51:57 437.305
Gurwin Techsat 1B 02 May 13:48:02 13:53:17 66° 73° (ENE) 13:58:34 435.225
Oscar 19 02 May 13:58:16 14:03:09 42° 261° (W) 14:08:06 437.125/150
BEESAT 02 May 14:04:22 14:07:41 18° 92° (E) 14:10:59 436.000
GONETS M04 02 May 14:04:53 14:10:17 18° 283° (WNW) 14:15:40
DX 1 02 May 14:07:00 14:08:54 13° 299° (WNW) 14:10:48 434.975-435.025
VELOX 1 02 May 14:08:44 14:10:10 11° 300° (WNW) 14:11:35 145.980
UKube-1 02 May 14:14:28 14:16:18 13° 299° (WNW) 14:18:09 .
O/OREOS (USA 219) 02 May 14:16:05 14:19:45 24° 102° (ESE) 14:23:27 437.305
SO-50 02 May 14:20:29 14:22:59 14° 34° (NE) 14:25:27 436.795
Cosmos 2499 02 May 14:28:44 14:34:01 20° 279° (W) 14:39:34 435.465 / 435.565
AO-85 02 May 14:30:57 14:35:31 27° 317° (NW) 14:40:02 145.980
JAS-2 02 May 14:33:13 14:37:26 19° 273° (W) 14:42:01 435.910
ISS 02 May 14:39:52 14:42:49 31° 223° (SW) 14:45:45 145.825
SPROUT 02 May 14:46:13 14:47:07 11° 300° (WNW) 14:47:59 437.525
PHONESAT 2.4 02 May 14:53:03 14:55:42 24° 203° (SSW) 14:58:21 2401.200-2431.200
ITUPSAT 1 02 May 14:58:01 15:02:46 62° 102° (ESE) 15:07:29 437.325
SWISSCUBE 02 May 15:07:42 15:12:29 88° 101° (E) 15:17:15 437.505
HORYU 2 02 May 15:08:37 15:09:53 11° 60° (ENE) 15:11:10 437.375
AO-7 02 May 15:12:52 15:21:05 72° 68° (ENE) 15:29:20 29.400- 29.500
ITAMSAT 1 02 May 15:15:39 15:20:37 46° 261° (W) 15:25:36 435.822/435.867
TISAT 1 02 May 15:20:51 15:22:59 14° 298° (WNW) 15:25:05 437.305
Gurwin Techsat 1B 02 May 15:30:28 15:33:42 16° 270° (W) 15:36:57 435.225
BEESAT 02 May 15:41:09 15:45:44 48° 289° (WNW) 15:50:17 436.000
CUSAT 1 02 May 15:42:39 15:46:02 65° 283° (WNW) 15:50:31 437.405
PCSat 02 May 15:46:56 15:52:17 64° 116° (ESE) 15:57:40 145.827
O/OREOS (USA 219) 02 May 15:54:45 15:58:59 35° 300° (WNW) 16:03:12 437.305
SO-50 02 May 15:59:36 16:04:22 72° 55° (NE) 16:08:56 436.795
KKS-1 02 May 16:15:36 16:19:59 53° 100° (E) 16:24:20 437.445
MOZHAYETS 4 02 May 16:15:44 16:19:56 35° 97° (E) 16:24:07
DANDE 02 May 16:22:14 16:25:03 54° 284° (WNW) 16:28:33 436.750
STARS 02 May 16:33:28 16:37:41 42° 99° (E) 16:41:51 437.465
ITUPSAT 1 02 May 16:37:14 16:40:05 16° 298° (WNW) 16:42:56 437.325
HORYU 2 02 May 16:41:18 16:45:47 83° 256° (WSW) 16:50:16 437.375
CUTE-I 02 May 16:43:36 16:46:29 15° 59° (ENE) 16:49:22 437.470
SWISSCUBE 02 May 16:47:57 16:49:34 12° 301° (WNW) 16:51:10 437.505
BRITE-PL 02 May 16:49:12 16:51:37 14° 58° (ENE) 16:54:08 437.365/2234.400
NOAA 18 02 May 16:51:28 16:55:49 24° 63° (ENE) 17:00:10 137.9125
LilacSat-2 02 May 16:56:46 16:57:15 10° 62° (ENE) 16:57:43 437.200
AO-7 02 May 17:07:57 17:14:30 26° 266° (W) 17:21:07 29.400- 29.500
AUBIESAT-1 02 May 17:10:56 17:11:57 11° 54° (NE) 17:12:58 437.475
Cosmos 2491 02 May 17:14:37 17:22:53 41° 72° (ENE) 17:31:01 435.465 / 435.565
NOAA 15 02 May 17:24:34 17:29:36 48° 70° (ENE) 17:34:41 137.62
Cubesat XI-IV 02 May 17:25:37 17:30:20 33° 67° (ENE) 17:35:04 437.490
YUBILEINY 02 May 17:30:13 17:35:56 20° 78° (ENE) 17:41:37 435.215
PCSat 02 May 17:31:52 17:36:08 23° 315° (NW) 17:40:25 145.827
SO-50 02 May 17:41:55 17:44:12 14° 252° (WSW) 17:46:25 436.795
MOZHAYETS 4 02 May 17:53:17 17:56:56 24° 293° (WNW) 18:00:35
KKS-1 02 May 17:53:21 17:56:08 16° 297° (WNW) 17:58:54 437.445
DOVE 4 02 May 17:59:28 18:02:46 17° 61° (ENE) 18:06:08 437.250
CUBESAT XI-V 02 May 17:59:35 18:04:09 49° 99° (E) 18:08:42 437.345
GOMX 1 02 May 18:00:18 18:04:44 32° 67° (ENE) 18:09:25 467.674
HO-68 02 May 18:04:28 18:08:21 16° 51° (NE) 18:12:14 435.675
STARS 02 May 18:10:35 18:13:44 19° 296° (WNW) 18:16:51 437.465
BEESAT 3 02 May 18:17:22 18:21:00 37° 117° (ESE) 18:24:40 437.485
CUTE-I 02 May 18:20:30 18:25:50 81° 256° (WSW) 18:31:12 437.470
M-CUBED/EXP-1 PRIME 02 May 18:22:04 18:26:44 61° 68° (ENE) 18:31:20 437.505
BEESAT 2 02 May 18:24:25 18:27:45 26° 114° (ESE) 18:31:07 435.950
BRITE-PL 02 May 18:24:27 18:29:15 82° 258° (WSW) 18:34:31 437.365/2234.400
LilacSat-2 02 May 18:27:08 18:31:00 68° 258° (WSW) 18:34:53 437.200
NOAA 18 02 May 18:30:49 18:36:09 50° 260° (W) 18:41:30 137.9125
AUBIESAT-1 02 May 18:41:02 18:45:42 78° 69° (ENE) 18:50:17 437.475
CINEMA 3 02 May 18:45:28 18:48:25 16° 62° (ENE) 18:51:22 145.822/145.860
CANX-2 02 May 18:48:33 18:50:46 14° 63° (ENE) 18:52:58 2200.000
Cubesat XI-IV 02 May 19:05:37 19:10:22 33° 264° (W) 19:15:09 437.490
NOAA 15 02 May 19:05:37 19:09:37 22° 267° (W) 19:13:40 137.62
STRAND 1 02 May 19:10:31 19:14:36 24° 94° (E) 19:18:39 437.568
Cosmos 2491 02 May 19:11:32 19:19:45 45° 272° (W) 19:27:54 435.465 / 435.565
Cosmos 2504 02 May 19:15:22 19:20:19 20° 81° (E) 19:25:13 435.465 / 435.565
CUTE 1.7 + AOD 2 02 May 19:19:53 19:23:23 26° 68° (ENE) 19:26:54 437.475
YUBILEINY 02 May 19:22:46 19:31:32 86° 278° (W) 19:40:19 435.215
CUBEBUG 2 02 May 19:34:34 19:37:19 16° 63° (ENE) 19:40:02 437.445
DOVE 4 02 May 19:34:46 19:39:50 68° 260° (W) 19:45:07 437.250
CUBESAT XI-V 02 May 19:37:54 19:41:10 19° 296° (WNW) 19:44:26 437.345
GOMX 1 02 May 19:38:13 19:42:44 33° 266° (W) 19:47:31 467.674
RS-15 02 May 19:39:25 19:44:13 14° 93° (E) 19:49:05 29.354- 29.394
AO-85 02 May 19:42:20 19:44:20 12° 30° (NNE) 19:46:17 145.980
SEEDS 02 May 19:47:12 19:51:02 37° 71° (ENE) 19:54:54 437.485
HO-68 02 May 19:47:45 19:54:52 74° 71° (ENE) 20:02:01 435.675
COMPASS 1 02 May 19:51:17 19:54:52 30° 70° (ENE) 19:58:29 437.405
AIST 2 02 May 19:54:43 19:57:29 18° 111° (ESE) 20:00:16 435.215
BEESAT 3 02 May 19:55:39 19:58:49 23° 315° (NW) 20:02:01 437.485
M-CUBED/EXP-1 PRIME 02 May 19:58:42 20:01:33 16° 264° (W) 20:04:25 437.505
ZACube-1 02 May 19:59:40 20:01:40 13° 62° (ENE) 20:03:39 437.345
BEESAT 2 02 May 20:01:58 20:05:31 30° 311° (NW) 20:09:06 435.950
AUBIESAT-1 02 May 20:18:56 20:20:36 12° 265° (W) 20:22:16 437.475
CINEMA 3 02 May 20:19:58 20:24:57 70° 259° (WSW) 20:29:59 145.822/145.860
AAUSAT CUBESAT 2 02 May 20:21:52 20:25:51 52° 74° (ENE) 20:29:52 437.432
CANX-2 02 May 20:22:02 20:26:10 55° 260° (W) 20:30:19 2200.000
Oscar 11 02 May 20:40:01 20:43:56 35° 70° (ENE) 20:47:52 145.826/435.025
STRAND 1 02 May 20:49:07 20:53:55 43° 291° (WNW) 20:58:43 437.568
FUNcube-1 02 May 20:51:04 20:55:16 39° 71° (ENE) 20:59:24 145.935
CUTE 1.7 + AOD 2 02 May 20:55:33 20:59:09 27° 265° (W) 21:02:46 437.475
UWE-3 02 May 21:01:39 21:06:18 79° 76° (ENE) 21:10:52 435.000/436.395/437.385
HUMSAT D 02 May 21:04:09 21:06:33 15° 64° (ENE) 21:08:56 437.325/437.525
Cosmos 2504 02 May 21:05:39 21:12:55 70° 280° (W) 21:20:05 435.465 / 435.565
PRISM 02 May 21:05:58 21:10:09 73° 103° (ESE) 21:14:19 437.425
CUBEBUG 2 02 May 21:08:44 21:13:26 63° 259° (W) 21:18:06 437.445
AO-85 02 May 21:21:14 21:26:01 56° 52° (NE) 21:30:20 145.980
SEEDS 02 May 21:23:57 21:26:53 18° 267° (W) 21:29:49 437.485
YUBILEINY 02 May 21:23:59 21:29:44 19° 300° (WNW) 21:35:29 435.215
COMPASS 1 02 May 21:27:10 21:30:27 23° 266° (W) 21:33:45 437.405
AIST 2 02 May 21:31:38 21:35:37 46° 308° (NW) 21:39:39 435.215
ZACube-1 02 May 21:32:52 21:37:24 71° 258° (WSW) 21:41:53 437.345
DELFI C3 02 May 21:36:48 21:40:43 73° 76° (ENE) 21:44:40 145.870
HO-68 02 May 21:38:03 21:43:13 21° 269° (W) 21:48:26 435.675
RS-15 02 May 21:42:57 21:54:00 66° 115° (ESE) 22:05:42 29.354- 29.394
AAUSAT CUBESAT 2 02 May 21:59:47 22:01:40 13° 270° (W) 22:03:33 437.432
ANTELSAT 02 May 22:13:15 22:16:06 17° 92° (E) 22:18:54 437.575/2403.000
Oscar 11 02 May 22:16:53 22:20:10 21° 267° (W) 22:23:27 145.826/435.025
AISAT 02 May 22:24:52 22:27:55 19° 64° (ENE) 22:31:00 437.250
FUNcube-1 02 May 22:28:15 22:31:37 20° 267° (W) 22:34:58 145.935
HUMSAT D 02 May 22:37:39 22:41:46 51° 260° (W) 22:45:52 437.325/437.525
ESTCUBE 1 02 May 22:41:52 22:45:55 34° 69° (ENE) 22:49:59 437.505/2401.250
UWE-3 02 May 22:42:21 22:43:15 10° 272° (W) 22:44:10 435.000/436.395/437.385
PRISM 02 May 22:43:37 22:44:53 11° 299° (WNW) 22:46:08 437.425
PCSat 02 May 22:52:38 22:54:57 13° 35° (NE) 22:57:16 145.827
50 SAT 02 May 23:00:02 23:03:28 39° 72° (ENE) 23:06:54 437.505
CUBEBUG 1 02 May 23:00:45 23:04:48 38° 70° (ENE) 23:08:54 437.445
AO-85 02 May 23:02:59 23:05:55 17° 252° (WSW) 23:08:41 145.980
Cosmos 2504 02 May 23:05:29 23:07:46 12° 302° (WNW) 23:10:05 435.465 / 435.565
UNISAT 6 02 May 23:06:29 23:10:49 66° 102° (ESE) 23:15:03 437.425
GONETS M04 02 May 23:13:59 23:20:10 22° 78° (ENE) 23:26:20
TIGRISAT 02 May 23:24:03 23:28:25 84° 281° (WNW) 23:32:39 435.000
DX 1 02 May 23:24:42 23:29:01 65° 73° (ENE) 23:33:22 434.975-435.025
VELOX 1 02 May 23:27:28 23:31:53 76° 75° (ENE) 23:36:21 145.980
UKube-1 02 May 23:31:20 23:35:36 62° 73° (ENE) 23:39:54 .
DUCHIFAT 1 02 May 23:44:45 23:48:27 29° 96° (E) 23:52:08 145.980
QB50P2 02 May 23:44:54 23:48:48 34° 97° (E) 23:52:39 145.880/145.840
POLYITAN 1 02 May 23:47:03 23:50:58 35° 97° (E) 23:54:49 437.675
ANTELSAT 02 May 23:48:56 23:53:02 42° 289° (WNW) 23:57:04 437.575/2403.000
POPSAT HIP 1 02 May 23:49:38 23:53:35 36° 98° (E) 23:57:29 437.405
QB50P1 02 May 23:52:50 23:56:51 40° 98° (E) 00:00:49 145.935-145.965
RS-15 02 May 23:56:21 00:07:10 45° 321° (NW) 00:18:36 29.354- 29.394
JAS-2 02 May 23:57:21 23:59:39 11° 82° (E) 00:01:56 435.910
AISAT 02 May 23:59:47 00:04:03 46° 261° (W) 00:08:23 437.250
SPROUT 03 May 00:01:19 00:05:36 65° 74° (ENE) 00:09:54 437.525
ESTCUBE 1 03 May 00:19:13 00:22:47 23° 266° (W) 00:26:23 437.505/2401.250
O/OREOS (USA 219) 03 May 00:24:31 00:28:57 51° 63° (ENE) 00:33:19 437.305
BUGSAT 1 03 May 00:26:40 00:30:40 41° 98° (E) 00:34:35 437.445
NANOSAT C BR1 03 May 00:27:33 00:31:48 85° 284° (WNW) 00:36:00 145.865
AIST 1 03 May 00:32:02 00:36:18 74° 96° (E) 00:40:40
CUSAT 1 03 May 00:32:16 00:37:10 19° 64° (ENE) 00:42:25 437.405
PCSat 03 May 00:34:10 00:39:33 58° 56° (NE) 00:44:53 145.827
TISAT 1 03 May 00:35:37 00:39:42 46° 72° (ENE) 00:43:47 437.305
50 SAT 03 May 00:35:38 00:37:27 13° 268° (W) 00:39:17 437.505
CUBEBUG 1 03 May 00:37:57 00:41:13 20° 267° (W) 00:44:31 437.445
SWISSCUBE 03 May 00:39:58 00:42:12 13° 60° (ENE) 00:44:25 437.505
UNISAT 6 03 May 00:45:06 00:46:57 13° 299° (WNW) 00:48:49 437.425
DX 1 03 May 01:04:00 01:05:38 12° 270° (W) 01:07:16 434.975-435.025
GONETS M04 03 May 01:07:01 01:15:53 81° 278° (W) 01:24:47
VELOX 1 03 May 01:08:28 01:08:53 10° 271° (W) 01:09:18 145.980
UKube-1 03 May 01:10:21 01:12:03 12° 270° (W) 01:13:46 .
BEESAT 03 May 01:11:21 01:15:07 24° 65° (ENE) 01:18:53 436.000
Cosmos 2499 03 May 01:11:53 01:18:50 62° 93° (E) 01:25:50 435.465 / 435.565
DANDE 03 May 01:14:32 01:19:01 19° 67° (ENE) 01:24:04 436.750
DUCHIFAT 1 03 May 01:20:37 01:24:02 24° 293° (WNW) 01:27:25 145.980
QB50P2 03 May 01:21:10 01:24:24 21° 294° (WNW) 01:27:35 145.880/145.840
POLYITAN 1 03 May 01:23:22 01:26:32 21° 294° (WNW) 01:29:42 437.675
POPSAT HIP 1 03 May 01:26:00 01:29:08 20° 294° (WNW) 01:32:14 437.405
QB50P1 03 May 01:29:22 01:32:20 19° 295° (WNW) 01:35:16 145.935-145.965
JAS-2 03 May 01:38:13 01:45:58 63° 100° (E) 01:53:42 435.910
SPROUT 03 May 01:40:31 01:41:59 11° 271° (W) 01:43:26 437.525
BUGSAT 1 03 May 02:02:53 02:05:43 18° 295° (WNW) 02:08:31 437.445
Gurwin Techsat 1B 03 May 02:04:10 02:08:29 24° 94° (E) 02:12:45 435.225
O/OREOS (USA 219) 03 May 02:05:11 02:07:54 16° 261° (W) 02:10:34 437.305
ITUPSAT 1 03 May 02:05:12 02:09:57 78° 75° (ENE) 02:14:43 437.325
Oscar 19 03 May 02:08:45 02:13:57 65° 102° (ESE) 02:19:05 437.125/150
CUSAT 1 03 May 02:12:48 02:20:03 85° 81° (E) 02:28:09 437.405
TISAT 1 03 May 02:13:01 02:15:36 16° 268° (W) 02:18:11 437.305
AIST 1 03 May 02:13:53 02:14:29 10° 294° (WNW) 02:15:06
SWISSCUBE 03 May 02:14:37 02:19:22 76° 257° (WSW) 02:24:08 437.505
RS-15 03 May 02:14:41 02:23:56 25° 354° (N) 02:33:27 29.354- 29.394
PCSat 03 May 02:18:33 02:22:28 21° 254° (WSW) 02:26:23 145.827
BEESAT 3 03 May 02:34:05 02:37:34 29° 48° (NE) 02:41:02 437.485
BEESAT 2 03 May 02:41:41 02:44:53 22° 45° (NE) 02:48:03 435.950
BEESAT 03 May 02:48:15 02:52:40 39° 262° (W) 02:57:09 436.000
DANDE 03 May 02:55:45 03:02:20 89° 261° (W) 03:10:25 436.750
Cosmos 2499 03 May 03:07:04 03:12:31 23° 293° (WNW) 03:18:02 435.465 / 435.565
GONETS M04 03 May 03:08:41 03:14:14 18° 301° (WNW) 03:19:50
KKS-1 03 May 03:13:58 03:18:19 52° 72° (ENE) 03:22:42 437.445
AO-7 03 May 03:14:57 03:20:57 21° 92° (E) 03:26:55 29.400- 29.500
MOZHAYETS 4 03 May 03:18:09 03:22:20 36° 70° (ENE) 03:26:29
JAS-2 03 May 03:23:54 03:30:27 31° 298° (WNW) 03:37:04 435.910
ITAMSAT 1 03 May 03:27:29 03:32:36 59° 101° (E) 03:37:43 435.822/435.867
STARS 03 May 03:30:30 03:34:40 41° 71° (ENE) 03:38:51 437.465
